Location: Newark
(13.8117°N, 3.6025°W)
Time: 23:15:59
(UTC+00:00)

Explorer 11/Cluster Stage 4 - Pass Details

Date: 30 August 2019
Orbit: 467 x 1259 km, 28.8° (Epoch: 17 October)

Event Time Altitude Azimuth Distance (km) Brightness Sun altitude
Rises 04:37:40 0° 227° (SW) 2,797 - -21.0°
Reaches altitude 10° 04:39:50 10° 221° (SW) 1,994 - -20.5°
Exits shadow 04:42:09 28° 203° (SSW) 1,260 7.3 -19.9°
Maximum altitude 04:44:18 45° 148° (SSE) 977 7.1 -19.4°
Drops below altitude 10° 04:49:52 10° 76° (ENE) 2,489 10.4 -18.1°
Sets 04:52:51 0° 70° (ENE) 3,576 11.7 -17.4°
